Regional Weather Roundup
Issued by NWS

Home | Current Version | Previous Version | Graphics & Text | Print | Product List | Glossary On
Versions: 1 2 3 4 5 6 7 8 9 10 11 12 13 14 15 16 17 18 19 20 21 22 23 24 25 26 27 28 29 30 31 32 33 34 35 36 37 38 39 40 41 42 43 44 45 46 47 48 49 50
000
ASUS45 KBOU 291307
RWRCO

WEATHER ROUNDUP FOR COLORADO
NATIONAL WEATHER SERVICE DENVER/BOULDER CO
700 AM MDT FRI MAY 29 2015

NOTE: "FAIR" INDICATES FEW OR NO CLOUDS BELOW 12000 FEET WITH NO
SIGNIFICANT WEATHER AND/OR OBSTRUCTIONS TO VISIBILITY.

COZ001>005-013-030-031-291400-
...NORTHWEST COLORADO...

CITY           SKY/WX    TMP DP  RH WIND       PRES   REMARKS
CRAIG          PTSUNNY   41  40  96 CALM      30.28R
HAYDEN         PTSUNNY   43  36  75 E5        30.28R
MEEKER         PTSUNNY   41  35  79 CALM      30.29R
MOUNT WERNER   NOT AVBL
STEAMBOAT SPGS CLOUDY    40  38  93 CALM      30.28R
WALDEN         CLOUDY    37  34  87 CALM      30.29R
$$

COZ006>008-011-291400-
...WEST CENTRAL VALLEYS...

CITY           SKY/WX    TMP DP  RH WIND       PRES   REMARKS
GRAND JUNCTION SUNNY     47  45  93 CALM      30.21R
MONTROSE       SUNNY     45  39  79 SE8       30.26R
EAGLE          MOSUNNY   48  46  93 CALM      30.32R
RIFLE          SUNNY     43  39  86 E3        30.26R
DELTA          MOSUNNY   48  43  81 CALM      30.24R
NUCLA          SUNNY     45  37  76 E5        30.26R
$$

COZ017>023-064>068-291400-
...SOUTHWEST COLORADO...

CITY           SKY/WX    TMP DP  RH WIND       PRES   REMARKS
DURANGO        SUNNY     42  36  79 CALM      30.22R
CORTEZ         SUNNY     43  38  82 E6        30.21R
PAGOSA SPRINGS SUNNY     41  33  73 CALM      30.27R
TELLURIDE      SUNNY     38  34  85 SE5       30.35R
WOLF CREEK PAS NOT AVBL
$$

COZ009-010-012-014-032>034-037-058>063-291400-
...CENTRAL COLORADO...

CITY           SKY/WX    TMP DP  RH WIND       PRES   REMARKS
ASPEN          MOSUNNY   37  33  85 S5        30.30R
BUENA VISTA    MOSUNNY   38  32  78 CALM      30.29R
COPPER MTN     CLOUDY    34  28  80 W15G25    30.40R WCI  24
BERTHOUD PASS  HAZE      23  16  74 NW18      30.40R VSB 1/4 WCI   9
COTTONWOOD PAS MOSUNNY   41  27  56 NW5       30.33S
GUNNISON       CLOUDY    39  34  81 CALM      30.34R
KREMMLING      CLOUDY    37  34  87 CALM      30.31R
LEADVILLE      PTSUNNY   33  29  85 N5        30.33R WCI  29
MONARCH PASS   SUNNY     28  27  93 MISG      30.51R
SALIDA         MOSUNNY   42  34  71 CALM      30.35R
SUNLIGHT       MOSUNNY   34  30  86 CALM        N/A
WILKERSON PASS SUNNY     32  21  64 NW7       30.40R WCI  26
$$

COZ069>075-291400-
...SAN LUIS VALLEY/SANGRE DE CRISTO MOUNTAINS...

CITY           SKY/WX    TMP DP  RH WIND       PRES   REMARKS
ALAMOSA        SUNNY     40  32  73 CALM      30.27R
LA VETA PASS   MOSUNNY  N/A N/A N/A MISG      30.35S
SAGUACHE       SUNNY     41  34  75 NW14      30.29R
$$

COZ035-036-038>040-291400-
...NORTHERN COLORADO FRONT RANGE...

CITY           SKY/WX    TMP DP  RH WIND       PRES   REMARKS
DENVER INTL AP PTSUNNY   54  47  77 NW5       30.19R
DMNS CITY PARK   N/A     52  46  80 SE2       30.20R
AURORA         PTSUNNY   47  44  90 W3        30.21R
FRONT RANGE AP PTSUNNY   50  48  93 W3        30.20R
ERIE MUNI ARPT SUNNY     47  46  97 CALM      30.18S
BOULDER MUN AP SUNNY     52  46  82 E3        30.18R
CENTENNIAL     MOSUNNY   49  44  83 W5        30.20R
BROOMFIELD     PTSUNNY   48  45  87 W5        30.20R
FORT COLLINS   PTSUNNY   52  46  82 SW5       30.19R
LONGMONT       PTSUNNY   56  49  80 CALM      30.20R
$$

COZ041-046-047-076>085-087-088-291400-
...PIKES PEAK/PALMER DIVIDE AND SOUTHERN FOOTHILLS...

CITY           SKY/WX    TMP DP  RH WIND       PRES   REMARKS
COLO. SPRINGS  MOSUNNY   49  42  77 N9        30.19R
A. F. ACADEMY  SUNNY     45  42  88 N5        30.21R
ELLICOTT       SUNNY    N/A N/A N/A NE12      30.18R
FALCON         SUNNY     50  39  65 N52G104   30.23R
FORT CARSON    SUNNY     49  42  78 N8        30.17R
LIMON          SUNNY     50  47  89 W7        30.16R
MONUMENT HILL  MOSUNNY   45  41  87 S3        30.24R
TRINIDAD       SUNNY     52  48  86 W7        30.17R
$$

COZ042>045-048>051-090-091-291400-
...NORTHEAST COLORADO...

CITY           SKY/WX    TMP DP  RH WIND       PRES   REMARKS
GREELEY ARPT   PTSUNNY   54  48  82 N6        30.17R
AKRON          MOSUNNY   52  48  86 NW14      30.14R
BURLINGTON     PTSUNNY   54  50  86 NW12      30.10R
WRAY           MOSUNNY   52  50  92 W3        30.10R
STERLING       MOSUNNY   54  48  82 N12G18    30.12R
HOLYOKE        MOSUNNY   59  52  77 NW8       30.10R
FORT MORGAN    CLOUDY    53  47  81 W8        30.16R
$$

COZ086-089-092>099-291400-
...SOUTHEAST COLORADO...

CITY           SKY/WX    TMP DP  RH WIND       PRES   REMARKS
PUEBLO         SUNNY     53  49  86 W3        30.13R
LA JUNTA       SUNNY     56  51  84 W10       30.11R
LAMAR          MOSUNNY   56  52  86 SW5       30.06S
SPRINGFIELD      N/A     57  51  80 NW10      30.09R
$$



USA.gov is the U.S. government's official web portal to all federal, state and local government web resources and services.